Flag for Russia Weather past 2 weeks in Kazan, Russia

Now
36 °F

Clear.


Feels Like: 31 °F
Forecast: 36 / 52 °F
Wind: 6 mph from Southeast

Location: Kazan'

Current Time: Apr 18, 2015 at 10:25:30 PM

Latest Report: Apr 18, 2015 at 9:30 PM


Visibility: 10 mi

Pressure: 29.59 "Hg

Humidity: 81%

Dew point: 30 °F

Location of KazanLocation

Historic Weather in Kazan — Graph

°F

Kazan temperature yesterday

Maximum temperature yesterday: 43 °F (at 6:30 AM)
Minimum temperature yesterday: 37 °F (at 11:00 AM)
Average temperature yesterday: 40 °F

Past Weeks' High & Low Weather Summary

 TemperatureHumidityPressure
High55 °F (Apr 14, 3:00 PM)100% (Apr 4, 4:00 PM)30.15 "Hg (Apr 4, 4:00 PM)
Low28 °F (Apr 3, 10:00 PM)41% (Apr 13, 2:30 PM)29.30 "Hg (Apr 17, 6:00 AM)
Average38 °F81%29.81 "Hg
* Reported Apr 3 9:00 PM — Apr 18 9:00 PM, Kazan, Weather by CustomWeather, © 2015

Note: Actual official high and low records may vary slightly from our data, if they occured in-between our weather recording intervals... More about our weather records

Advertising

Kazan weather history for previous 24 hours

 ConditionsComfort  
Time TempWeatherWind HumidityBarometerVisibility
9:00 PM
Sat, Apr 18
37 °FClear.3 mph75%29.62 "Hg10 mi
8:30 PM37 °FClear.3 mph75%29.59 "Hg10 mi
8:00 PM39 °FClear.3 mph70%29.59 "Hg10 mi
7:30 PM37 °FSunny.No wind81%29.59 "Hg10 mi
7:00 PM39 °FScattered clouds.3 mph75%29.59 "HgN/A
6:30 PM41 °FBroken clouds.3 mph76%29.59 "HgN/A
6:00 PM43 °FBroken clouds.13 mph66%29.59 "HgN/A
5:30 PM45 °FBroken clouds.13 mph61%29.56 "HgN/A
5:00 PM45 °FBroken clouds.15 mph61%29.56 "HgN/A
4:30 PM46 °FBroken clouds.13 mph53%29.56 "HgN/A
4:00 PM46 °FBroken clouds.17 mph53%29.56 "HgN/A
3:30 PM46 °FBroken clouds.15 mph62%29.56 "HgN/A
3:00 PM46 °FBroken clouds.13 mph53%29.56 "HgN/A
2:30 PM45 °FBroken clouds.17 mph61%29.56 "HgN/A
2:00 PM45 °FBroken clouds.13 mph61%29.56 "HgN/A
1:30 PM45 °FPartly sunny.15 mph61%29.53 "HgN/A
1:00 PM45 °FPartly sunny.13 mph66%29.53 "HgN/A
12:30 PM43 °FPartly sunny.20 mph71%29.53 "HgN/A
12:00 PM45 °FPartly sunny.17 mph57%29.53 "HgN/A
11:30 AM46 °FBroken clouds.15 mph57%29.50 "HgN/A
11:00 AM46 °FBroken clouds.20 mph62%29.50 "HgN/A
10:30 AM45 °FBroken clouds.20 mph61%29.50 "HgN/A
10:00 AM45 °FPassing clouds.20 mph66%29.50 "HgN/A
9:30 AM43 °FPassing clouds.17 mph71%29.50 "HgN/A
9:00 AM41 °FPassing clouds.17 mph81%29.50 "HgN/A
8:30 AM41 °FScattered clouds.17 mph76%29.50 "HgN/A
8:00 AM39 °FScattered clouds.15 mph87%29.50 "HgN/A
7:30 AM39 °FScattered clouds.17 mph81%29.50 "HgN/A
7:00 AM37 °FScattered clouds.15 mph87%29.50 "HgN/A
6:30 AM37 °FScattered clouds.15 mph81%29.50 "HgN/A
6:00 AM36 °FScattered clouds.10 mph87%29.50 "HgN/A
5:30 AM36 °FPassing clouds.8 mph87%29.47 "HgN/A
5:00 AM34 °FPassing clouds.10 mph93%29.47 "HgN/A
4:30 AM34 °FPartly cloudy.8 mph93%29.47 "HgN/A
4:00 AM36 °FPassing clouds.10 mph87%29.47 "HgN/A
3:30 AM36 °FPassing clouds.13 mph87%29.47 "HgN/A
3:00 AM36 °FPartly cloudy.13 mph87%29.47 "HgN/A
2:30 AM36 °FPartly cloudy.15 mph87%29.47 "HgN/A
2:00 AM36 °FPartly cloudy.15 mph87%29.47 "HgN/A
1:30 AM37 °FPartly cloudy.15 mph81%29.47 "HgN/A
1:00 AM37 °FClear.17 mph75%29.45 "Hg10 mi
12:30 AM37 °FClear.17 mph75%29.45 "Hg10 mi
12:00 AM37 °FClear.15 mph75%29.45 "Hg10 mi
11:30 PM
Fri, Apr 17
37 °FClear.15 mph75%29.45 "Hg10 mi
11:00 PM37 °FClear.15 mph75%29.45 "Hg10 mi
10:30 PM37 °FClear.15 mph75%29.45 "Hg10 mi
10:00 PM37 °FClear.13 mph81%29.45 "Hg10 mi
Weather by CustomWeather, © 2015

See weather overviewHow to use our weather pages